| time (UTC) | temp F | wind direction | speed MPH | gust MPH | rain 1hr in | rain 24hr in | rain mn in | humidity % | barometer mb |
| 20260505100011 | 38 | 307 | 2.0 | 3.0 | 0.00 | 0.00 | 0.00 | 62 | 1009.3 |
| 20260505094505 | 39 | 307 | 1.0 | 4.0 | 0.00 | 0.00 | 0.00 | 59 | 1009.2 |
| 20260505093002 | 40 | 308 | 2.0 | 6.0 | 0.00 | 0.00 | 0.00 | 58 | 1009.1 |
| 20260505091600 | 40 | 315 | 3.0 | 8.0 | 0.00 | 0.00 | 0.00 | 57 | 1008.9 |
| 20260505090058 | 41 | 317 | 3.0 | 6.0 | 0.00 | 0.00 | 0.00 | 57 | 1008.8 |
| 20260505084601 | 41 | 306 | 3.0 | 8.0 | 0.00 | 0.00 | 0.00 | 55 | 1008.7 |
| 20260505083104 | 41 | 320 | 2.0 | 8.0 | 0.00 | 0.00 | 0.00 | 56 | 1008.6 |
| 20260505081547 | 42 | 300 | 3.0 | 8.0 | 0.00 | 0.00 | 0.00 | 54 | 1008.5 |
| 20260505080044 | 43 | 300 | 4.0 | 6.0 | 0.00 | 0.00 | 0.00 | 53 | 1008.6 |
| 20260505074541 | 43 | 302 | 3.0 | 8.0 | 0.00 | 0.00 | 0.00 | 51 | 1008.3 |
| 20260505073037 | 44 | 304 | 4.0 | 10.0 | 0.00 | 0.00 | 0.00 | 50 | 1008.1 |
| 20260505071534 | 44 | 306 | 5.0 | 9.0 | 0.00 | 0.00 | 0.00 | 50 | 1008.1 |
| 20260505070033 | 44 | 300 | 4.0 | 11.0 | 0.00 | 0.00 | 0.00 | 51 | 1008.0 |
| 20260505064534 | 45 | 315 | 3.0 | 9.0 | 0.00 | 0.00 | 0.00 | 50 | 1008.1 |
| 20260505063029 | 45 | 312 | 4.0 | 8.0 | 0.00 | 0.00 | 0.00 | 50 | 1008.0 |
| 20260505061528 | 45 | 332 | 3.0 | 6.0 | 0.00 | 0.00 | 0.00 | 50 | 1007.9 |
| 20260505060026 | 45 | 313 | 5.0 | 9.0 | 0.00 | 0.00 | 0.00 | 49 | 1008.0 |
| 20260505054542 | 45 | 324 | 4.0 | 10.0 | 0.00 | 0.00 | 0.00 | 49 | 1008.0 |
| 20260505053024 | 46 | 316 | 4.0 | 10.0 | 0.00 | 0.00 | 0.00 | 48 | 1008.1 |
| 20260505051520 | 46 | 314 | 5.0 | 13.0 | 0.00 | 0.00 | 0.00 | 47 | 1008.0 |
| 20260505041512 | 48 | 297 | 8.0 | 17.0 | 0.00 | 0.00 | 0.00 | 47 | 1007.8 |
| 20260505040013 | 48 | 306 | 9.0 | 21.0 | 0.00 | 0.00 | 0.00 | 47 | 1007.7 |
| 20260505034512 | 49 | 321 | 9.0 | 18.0 | 0.00 | 0.00 | 0.00 | 46 | 1007.7 |
| 20260505033010 | 49 | 310 | 10.0 | 22.0 | 0.00 | 0.00 | 0.00 | 45 | 1007.5 |
| 20260505031506 | 50 | 323 | 10.0 | 18.0 | 0.00 | 0.00 | 0.00 | 45 | 1007.3 |
| 20260505030015 | 50 | 335 | 11.0 | 19.0 | 0.00 | 0.00 | 0.00 | 45 | 1007.1 |
| 20260505024502 | 50 | 316 | 8.0 | 15.0 | 0.00 | 0.00 | 0.00 | 46 | 1006.8 |
| 20260505023100 | 51 | 309 | 8.0 | 16.0 | 0.00 | 0.00 | 0.00 | 45 | 1006.5 |
| 20260505021558 | 51 | 333 | 10.0 | 22.0 | 0.00 | 0.00 | 0.00 | 45 | 1006.3 |
| 20260505020107 | 52 | 303 | 11.0 | 21.0 | 0.00 | 0.00 | 0.00 | 44 | 1005.8 |
| 20260505014555 | 53 | 324 | 13.0 | 23.0 | 0.00 | 0.00 | 0.00 | 44 | 1005.5 |
| 20260505013053 | 53 | 346 | 14.0 | 22.0 | 0.00 | 0.00 | 0.00 | 43 | 1005.2 |
| 20260505011556 | 54 | 316 | 13.0 | 27.0 | 0.00 | 0.00 | 0.00 | 42 | 1004.7 |
| 20260505010107 | 56 | 294 | 11.0 | 19.0 | 0.00 | 0.00 | 0.00 | 42 | 1004.4 |
| 20260505004603 | 56 | 346 | 10.0 | 21.0 | 0.00 | 0.00 | 0.00 | 40 | 1003.9 |
| 20260505003053 | 57 | 319 | 14.0 | 25.0 | 0.00 | 0.00 | 0.00 | 38 | 1003.6 |
| 20260505001550 | 57 | 309 | 13.0 | 23.0 | 0.00 | 0.00 | 0.00 | 38 | 1003.6 |
| 20260505000100 | 58 | 296 | 14.0 | 24.0 | 0.00 | 0.00 | 0.00 | 37 | 1003.3 |
| 20260504234549 | 59 | 311 | 13.0 | 25.0 | 0.00 | 0.00 | 0.00 | 36 | 1003.4 |
| 20260504233008 | 59 | 301 | 17.0 | 32.0 | 0.00 | 0.00 | 0.00 | 32 | 1003.5 |
| 20260504231504 | 60 | 300 | 16.0 | 30.0 | 0.00 | 0.00 | 0.00 | 34 | 1003.5 |
| 20260504230004 | 61 | 302 | 20.0 | 26.0 | 0.00 | 0.00 | 0.00 | 34 | 1003.2 |
| 20260504224503 | 61 | 301 | 13.0 | 25.0 | 0.00 | 0.00 | 0.00 | 35 | 1003.0 |
| 20260504223002 | 62 | 324 | 10.0 | 22.0 | 0.00 | 0.00 | 0.00 | 33 | 1002.8 |
| 20260504221501 | 62 | 281 | 17.0 | 29.0 | 0.00 | 0.00 | 0.00 | 33 | 1002.4 |
| 20260504220101 | 63 | 310 | 20.0 | 28.0 | 0.00 | 0.00 | 0.00 | 31 | 1002.3 |
| 20260504214604 | 63 | 339 | 14.0 | 23.0 | 0.00 | 0.00 | 0.00 | 34 | 1002.1 |
| 20260504213102 | 64 | 294 | 13.0 | 26.0 | 0.00 | 0.00 | 0.00 | 33 | 1001.9 |
| 20260504211558 | 63 | 295 | 20.0 | 30.0 | 0.00 | 0.00 | 0.00 | 33 | 1001.9 |
| 20260504210059 | 64 | 298 | 16.0 | 25.0 | 0.00 | 0.00 | 0.00 | 36 | 1001.8 |
| 20260504204558 | 65 | 355 | 15.0 | 25.0 | 0.00 | 0.00 | 0.00 | 34 | 1001.7 |
| 20260504203056 | 66 | 321 | 12.0 | 26.0 | 0.00 | 0.00 | 0.00 | 34 | 1001.7 |
| 20260504201555 | 66 | 329 | 13.0 | 30.0 | 0.00 | 0.00 | 0.00 | 31 | 1001.7 |
| 20260504200055 | 66 | 326 | 15.0 | 24.0 | 0.00 | 0.00 | 0.00 | 34 | 1001.3 |
| 20260504194602 | 66 | 5 | 13.0 | 25.0 | 0.00 | 0.00 | 0.00 | 34 | 1001.2 |
| 20260504193053 | 66 | 288 | 14.0 | 23.0 | 0.00 | 0.00 | 0.00 | 36 | 1001.2 |
| 20260504191610 | 67 | 319 | 16.0 | 27.0 | 0.00 | 0.00 | 0.00 | 37 | 1000.8 |
| 20260504190050 | 69 | 310 | 15.0 | 24.0 | 0.00 | 0.00 | 0.00 | 33 | 1000.7 |
| 20260504184556 | 69 | 340 | 12.0 | 24.0 | 0.00 | 0.00 | 0.00 | 34 | 1000.3 |
| 20260504183049 | 69 | 279 | 16.0 | 24.0 | 0.00 | 0.00 | 0.00 | 35 | 1000.2 |
| 20260504181648 | 69 | 298 | 13.0 | 23.0 | 0.00 | 0.00 | 0.00 | 33 | 1000.2 |
| 20260504180045 | 69 | 305 | 11.0 | 25.0 | 0.00 | 0.00 | 0.00 | 38 | 1000.0 |
| 20260504174545 | 69 | 309 | 11.0 | 22.0 | 0.00 | 0.00 | 0.00 | 42 | 999.8 |
| 20260504173044 | 70 | 294 | 17.0 | 23.0 | 0.00 | 0.00 | 0.00 | 42 | 1000.0 |
| 20260504171544 | 69 | 285 | 15.0 | 23.0 | 0.00 | 0.00 | 0.00 | 46 | 999.9 |